Temperature
24 24 23 24 25 25 25 25 24 24 25 24 23 23 23 22 22 22 21 21 20 20 20 19 19 19 19 19 18 18 18 17 17 17 17 17 16 16 16 16 16 16 16 16
24 24 25 26 25 25 25 24 24 25 25 24 24 24 23 23 22 22 22 21 21 20 20 19 19 19 19 18 18 18 18 17 17 17 17 16 16 16 16 16 16 16 15 15
24 25 26 25 25 24 24 24 25 24 25 25 24 23 23 23 23 22 22 22 21 20 20 19 19 19 19 18 18 18 18 17 17 17 17 16 16 16 16 16 16 15 15 15
24 25 25 25 24 24 24 25 25 24 23 23 24 22 23 23 23 23 22 22 21 21 20 19 19 19 18 18 18 18 18 17 17 17 17 16 16 16 16 15 15 15 15 15
24 25 24 24 24 24 24 25 25 24 24 23 24 23 23 23 22 22 23 22 21 21 20 19 19 19 18 18 18 18 17 17 17 17 17 16 16 16 16 16 15 15 15 15
24 25 25 24 25 25 25 25 25 24 24 22 24 24 22 23 23 23 23 22 21 21 20 20 19 19 18 18 18 17 17 17 17 17 17 16 16 16 16 16 15 15 15 15
24 24 25 25 24 25 25 23 22 22 22 23 25 24 23 24 25 24 23 22 21 21 20 19 19 18 18 18 17 17 17 17 17 17 17 16 16 16 16 16 15 15 15 15
23 23 24 25 24 24 24 24 21 21 22 23 24 23 23 24 24 24 23 22 21 21 20 19 19 18 18 17 17 17 17 17 17 17 17 16 16 16 16 16 15 15 15 15
23 23 25 25 25 24 24 23 24 23 23 23 23 23 23 24 23 23 23 22 21 21 20 19 19 18 18 18 17 17 17 17 17 16 16 16 16 16 16 16 15 15 15 15
23 23 24 25 25 24 24 24 23 22 21 21 23 23 22 22 22 23 22 21 21 20 20 19 19 18 18 18 17 17 17 17 17 17 16 16 16 16 16 16 15 15 15 15
23 23 23 24 23 23 24 23 23 23 22 21 21 22 24 23 23 22 22 21 20 20 20 19 18 18 18 18 17 17 17 17 17 17 16 16 16 16 15 15 15 15 15 14
23 22 22 23 24 24 24 24 23 22 22 22 21 21 24 23 23 22 22 21 20 20 19 19 18 18 18 17 17 17 17 17 17 16 16 16 16 16 15 15 15 15 15 14
22 21 21 21 22 23 23 23 24 23 22 22 21 21 23 23 23 22 21 21 20 19 19 19 18 18 17 17 17 17 17 17 16 16 16 16 16 15 15 15 15 15 15 14
21 21 21 21 21 22 22 23 23 22 21 21 22 22 22 22 22 21 21 20 20 19 19 18 18 18 17 17 17 17 16 16 16 16 16 16 16 15 15 15 15 15 15 14
21 21 22 22 23 23 22 22 22 22 22 21 22 22 22 22 21 21 21 20 20 19 19 18 18 17 17 17 16 16 16 16 16 16 16 15 16 15 15 15 15 15 14 14
21 21 21 21 22 22 22 22 22 22 22 22 22 22 23 22 21 21 20 20 19 19 18 18 17 17 17 17 16 16 16 16 16 15 15 15 15 15 15 15 14 14 14 14
20 20 20 20 22 21 20 22 22 22 22 22 21 21 22 22 21 21 20 19 19 19 18 18 17 17 17 16 16 16 16 15 15 15 15 15 15 15 15 14 14 14 14 14
20 19 19 19 20 19 21 23 22 22 22 22 22 22 22 21 21 20 19 19 19 18 18 17 17 17 17 16 16 16 15 15 15 15 15 15 14 14 14 14 14 14 13 13
20 19 18 19 19 19 21 21 22 21 21 22 21 21 21 20 20 19 19 18 18 17 17 17 17 16 16 16 16 15 15 15 15 14 14 14 14 14 14 14 14 13 13 13
19 19 18 18 18 18 20 21 21 21 20 21 21 20 20 20 18 18 18 17 17 16 16 16 16 16 16 16 15 15 15 15 14 14 14 14 14 14 14 13 13 13 13 13
18 18 17 17 17 18 19 20 20 18 18 20 20 19 19 19 18 18 17 17 16 16 16 16 15 15 15 15 15 15 15 14 14 14 14 13 13 13 13 13 13 13 13 12
18 18 18 17 17 17 19 19 19 18 19 18 18 18 18 18 17 17 16 16 15 15 15 15 15 15 15 15 15 15 14 14 14 14 13 13 13 13 13 13 13 12 12 12
18 18 17 17 17 18 18 18 18 18 18 18 17 17 17 17 16 16 16 15 15 15 15 14 14 14 14 14 14 14 14 14 14 13 13 13 13 12 12 12 12 12 12 12
18 18 18 17 18 18 18 17 17 17 17 17 16 17 17 16 16 15 15 15 15 14 14 14 14 14 14 14 14 14 14 13 13 13 13 12 12 12 12 12 12 12 12 12
16 17 17 17 17 17 17 17 16 16 16 16 16 16 16 15 15 15 15 15 14 14 14 14 13 13 13 13 13 13 13 13 13 13 12 12 12 12 12 12 12 12 12 12
16 16 16 16 17 16 16 16 15 15 15 15 15 15 15 15 15 14 14 14 14 13 13 13 13 13 13 13 13 13 13 13 12 12 12 12 12 12 11 11 11 11 11 11
Wind_Speed
6 6 5 5 6 7 5 4 2 3 4 3 4 5 7 8 7 6 6 5 6 6 6 5 5 5 5 5 5 6 6 4 3 3 3 3 2 2 3 3 4 5 5 5
5 6 6 5 4 4 6 5 2 2 4 3 4 5 6 8 8 7 7 7 6 6 6 6 6 4 5 4 5 6 5 5 4 3 2 3 3 2 3 2 3 4 5 5
7 3 4 5 4 5 7 6 4 3 3 5 5 5 8 9 8 8 6 6 6 7 7 8 7 5 4 4 4 4 5 5 4 4 2 3 3 2 2 2 2 3 5 4
7 4 3 4 5 6 6 5 4 4 5 5 6 4 6 9 8 9 8 6 6 6 7 7 7 6 5 5 4 4 4 5 4 4 3 4 3 2 2 2 2 2 3 3
4 3 4 5 5 5 5 5 6 7 8 9 8 6 4 9 9 9 8 8 7 7 7 8 7 7 6 5 5 4 4 4 4 4 4 3 2 2 2 3 3 2 2 2
6 4 3 5 6 6 5 7 8 8 7 8 9 6 2 5 8 9 8 7 7 7 7 8 8 7 6 5 5 4 3 3 4 4 5 4 4 4 3 3 3 2 2 1
7 7 6 5 6 6 6 5 3 4 5 5 4 2 1 4 5 5 7 7 7 6 6 6 7 8 6 6 5 4 4 3 3 4 4 5 5 5 5 4 4 3 2 1
7 6 6 5 6 5 6 6 4 3 3 2 3 3 4 7 7 5 5 6 6 6 6 6 6 7 7 7 6 5 5 4 4 4 3 4 5 3 3 4 4 3 3 3
4 4 5 5 5 6 6 7 7 8 10 6 2 4 6 7 5 4 6 6 6 6 6 6 6 6 6 7 6 6 5 5 4 4 3 3 4 4 4 4 3 3 3 3
6 5 4 5 6 8 8 7 5 4 4 5 4 3 4 6 5 4 5 6 5 6 5 5 5 5 5 6 6 6 5 5 5 5 4 3 3 4 3 3 4 4 4 3
7 6 4 5 7 7 8 8 6 4 5 4 3 1 4 6 6 5 5 6 5 5 5 5 4 4 4 4 5 5 5 4 3 4 4 4 3 4 4 3 4 4 4 4
5 6 7 6 5 6 7 7 7 5 5 5 4 0 4 6 6 4 4 5 5 5 4 5 5 4 4 3 3 3 4 4 3 3 3 4 5 5 4 4 4 3 4 4
3 5 6 5 5 7 7 7 7 7 6 5 4 2 5 5 4 4 4 5 5 4 4 4 4 4 3 3 2 2 2 3 3 3 3 3 5 5 5 5 4 4 3 3
4 7 7 6 4 4 7 7 8 7 5 5 5 3 4 4 3 3 3 4 4 3 3 3 4 4 3 2 3 3 2 2 3 4 4 3 4 5 5 4 4 4 4 4
5 8 9 10 9 8 8 8 8 9 9 7 5 4 2 2 3 3 2 3 4 3 3 3 3 3 3 3 2 3 3 3 3 3 4 4 3 4 4 4 4 3 3 3
6 8 10 12 11 10 11 10 10 11 10 10 8 6 1 1 2 2 2 1 2 3 3 2 2 3 3 3 2 3 3 3 3 3 4 4 3 4 5 4 3 3 3 2
6 8 8 10 10 10 11 10 10 9 9 9 8 4 1 1 1 1 1 2 2 2 2 2 2 2 1 2 3 3 2 2 3 3 3 3 3 3 4 4 3 4 4 3
7 7 6 8 9 11 4 2 5 7 8 6 5 2 1 1 0 1 0 1 0 1 1 1 1 1 1 1 1 2 2 2 2 3 3 3 3 3 4 4 4 4 3 3
8 7 6 6 9 9 6 4 4 6 6 5 4 2 1 0 0 1 1 2 2 3 2 1 1 1 1 1 2 3 3 2 2 3 3 3 3 3 4 4 5 4 4 3
9 9 7 7 8 7 2 2 4 5 5 1 1 1 1 1 2 1 3 3 2 2 2 1 0 0 0 0 1 2 3 3 2 2 2 3 3 4 4 5 4 3 3 4
10 10 10 11 10 6 3 3 3 4 1 3 2 2 1 1 2 1 2 2 2 1 1 1 1 1 1 1 2 2 2 3 2 2 2 3 3 4 4 4 4 3 3 4
6 6 8 8 9 6 2 3 2 1 3 3 3 3 2 2 2 2 2 1 1 0 1 1 1 1 1 2 2 1 2 2 2 2 3 2 2 3 3 4 4 4 4 4
6 5 3 3 4 1 1 2 3 4 3 3 3 3 2 2 2 2 1 1 1 1 2 2 1 1 2 1 1 2 2 2 2 2 3 3 2 2 3 4 4 4 4 4
5 4 6 6 5 3 2 2 3 4 4 4 5 4 2 2 2 2 2 2 2 1 2 2 1 2 2 2 2 2 2 2 2 2 3 3 3 2 2 2 3 3 4 4
6 6 7 8 5 4 3 2 3 4 4 5 5 5 4 4 4 3 3 3 2 2 2 2 2 3 3 2 2 2 2 2 3 3 3 3 2 2 2 2 2 3 3 4
8 7 7 7 6 6 4 4 6 5 5 6 6 6 5 4 4 4 4 3 3 3 2 2 3 3 3 2 2 2 3 3 3 3 3 3 2 2 2 3 2 1 2 3
Wind_Direction
219 226 237 241 235 261 285 270 214 156 162 207 221 199 174 173 178 174 171 173 166 167 164 156 145 137 138 133 126 123 128 123 108 99 99 94 75 66 69 65 65 50 48 58
225 232 243 256 256 263 271 269 240 178 170 219 234 218 178 172 181 185 186 180 177 169 164 150 141 145 147 140 140 135 137 134 118 104 108 113 103 89 80 63 59 60 58 50
229 240 239 236 243 256 258 264 262 245 222 222 242 230 191 180 184 182 190 179 173 175 171 160 155 152 147 147 146 145 147 138 134 131 115 101 87 78 92 87 68 59 66 61
246 244 255 245 247 260 265 274 280 267 262 251 225 244 193 180 182 184 187 181 174 173 170 159 156 156 160 159 149 151 149 148 148 138 132 140 148 149 133 116 119 106 90 74
245 236 246 251 258 269 277 301 277 263 262 266 247 249 191 172 185 187 184 181 178 174 169 161 162 162 161 160 154 156 157 154 155 157 156 167 152 148 131 121 119 106 100 93
247 243 250 256 253 252 259 267 258 251 257 258 244 232 184 179 185 180 174 170 169 167 166 163 161 155 157 151 143 150 156 164 165 172 169 175 162 151 137 132 136 123 112 97
233 227 216 241 250 227 244 260 262 231 223 237 196 174 129 108 103 126 150 159 161 158 154 155 154 150 149 149 151 158 156 171 181 192 182 176 174 168 168 165 163 157 148 142
232 225 207 216 246 250 238 242 254 277 275 265 177 164 121 94 85 94 123 133 144 152 155 156 150 148 154 156 159 169 174 185 192 195 193 183 170 168 170 165 159 155 149 147
267 228 183 198 231 255 254 248 260 277 288 286 214 144 121 102 102 103 110 122 142 149 149 151 148 148 155 162 169 180 178 183 184 190 197 198 171 163 157 163 154 142 146 151
290 285 225 203 227 236 256 274 266 264 291 282 252 209 158 145 135 118 110 120 127 131 137 138 143 151 155 167 173 179 180 180 187 184 186 176 165 155 150 158 152 152 145 139
275 274 240 210 220 234 230 248 254 259 258 280 295 44 77 122 125 126 120 120 120 115 128 132 137 150 156 153 163 175 176 173 176 179 171 162 171 160 155 166 149 149 146 150
263 280 263 238 222 241 255 253 254 257 262 259 270 118 77 92 98 107 115 117 124 131 138 134 133 132 138 147 153 174 172 171 173 175 171 170 172 160 163 166 163 171 165 168
293 264 263 244 225 223 238 252 262 271 268 267 259 182 132 115 108 113 114 117 124 139 142 133 128 128 132 142 154 171 180 175 171 168 170 166 168 165 172 175 172 170 170 165
298 261 260 264 273 249 243 248 259 263 261 262 253 226 164 139 123 112 110 120 123 130 137 135 133 139 145 168 182 180 177 169 177 173 176 176 177 165 165 170 172 178 178 166
262 267 271 272 272 276 275 264 252 255 261 263 266 266 238 140 127 127 126 138 138 140 139 142 147 151 161 184 188 174 179 177 182 179 180 184 180 162 163 170 177 173 167 166
249 268 274 271 266 260 267 263 256 252 256 259 262 268 283 122 115 127 137 155 167 155 159 164 163 162 175 183 182 165 177 190 189 188 191 174 168 161 158 171 174 160 156 169
240 255 271 272 270 266 255 250 247 249 252 257 261 262 265 218 191 168 163 170 213 175 167 165 169 177 178 188 183 174 179 184 177 175 163 154 153 148 155 168 167 162 167 178
251 262 263 269 270 256 249 257 251 249 254 250 254 253 265 294 157 110 133 185 243 121 143 147 166 159 169 170 172 175 162 171 178 168 159 153 158 157 162 166 175 176 176 177
241 247 258 262 261 261 249 256 259 255 257 249 245 240 248 112 237 197 122 82 45 34 41 47 75 110 165 167 173 170 172 185 187 180 167 160 163 163 167 178 183 185 186 178
230 239 246 257 261 258 263 339 325 284 257 333 322 269 263 245 252 209 87 71 53 37 32 18 1 96 177 198 191 189 180 185 183 175 174 163 174 172 182 189 186 190 194 182
216 225 233 248 257 258 290 308 302 268 296 37 19 20 345 291 300 32 60 67 60 28 355 359 315 190 204 221 213 200 190 193 179 165 171 178 180 185 188 186 180 185 193 187
237 238 234 238 247 249 295 283 261 40 47 13 354 3 352 330 351 23 38 50 64 336 277 245 248 232 217 225 215 211 199 184 169 167 169 175 181 196 194 177 183 191 187 187
240 249 267 253 253 287 287 310 338 342 340 342 331 331 335 323 332 339 334 294 255 230 242 236 225 250 235 235 214 210 192 163 161 168 173 178 189 200 182 180 189 196 193 196
274 271 260 261 250 272 295 320 312 314 319 324 325 322 310 298 294 299 280 275 274 254 256 233 225 247 247 232 218 203 176 168 173 185 191 189 192 198 182 186 191 194 197 201
290 287 272 270 269 287 290 294 308 306 311 308 314 315 312 304 295 289 280 273 266 263 251 235 230 238 243 222 204 184 187 199 206 207 209 202 198 202 195 193 191 198 202 204
266 271 270 275 288 292 297 319 306 297 290 290 296 295 289 281 280 281 278 278 275 261 254 250 244 242 249 240 217 191 201 210 209 214 213 204 197 201 192 186 185 173 194 208
Height
1504 1506 1507 1504 1501 1501 1500 1503 1506 1505 1503 1506 1510 1511 1512 1514 1516 1518 1521 1523 1524 1526 1528 1530 1531 1533 1535 1537 1538 1539 1540 1542 1543 1544 1545 1546 1547 1548 1548 1549 1549 1550 1550 1550
1504 1505 1501 1498 1498 1500 1502 1505 1505 1503 1501 1505 1508 1509 1509 1511 1514 1516 1518 1520 1522 1525 1527 1528 1530 1532 1534 1536 1537 1538 1540 1541 1543 1544 1545 1546 1547 1547 1548 1548 1549 1550 1550 1550
1504 1501 1497 1498 1500 1503 1503 1505 1504 1505 1502 1503 1507 1510 1508 1508 1511 1513 1516 1518 1520 1522 1525 1527 1529 1531 1533 1535 1536 1538 1539 1541 1542 1543 1545 1546 1547 1547 1548 1548 1549 1549 1550 1550
1499 1497 1497 1499 1501 1502 1507 1499 1500 1502 1508 1510 1507 1519 1507 1505 1507 1509 1513 1515 1517 1520 1523 1525 1527 1529 1532 1534 1535 1537 1538 1540 1541 1542 1544 1545 1546 1547 1548 1548 1549 1549 1550 1550
1499 1497 1499 1502 1501 1500 1502 1498 1499 1501 1506 1508 1503 1510 1507 1501 1506 1506 1509 1512 1515 1518 1520 1523 1525 1528 1530 1532 1534 1536 1537 1539 1540 1541 1543 1544 1545 1546 1547 1548 1548 1549 1550 1550
1497 1497 1498 1499 1498 1498 1498 1500 1499 1500 1505 1515 1501 1506 1510 1501 1500 1501 1505 1509 1512 1515 1518 1521 1524 1526 1529 1531 1533 1534 1536 1537 1538 1540 1541 1543 1544 1545 1546 1547 1548 1548 1549 1550
1500 1497 1496 1497 1498 1498 1499 1508 1518 1519 1519 1512 1492 1501 1506 1494 1494 1497 1502 1506 1510 1513 1516 1519 1522 1524 1527 1529 1531 1533 1534 1536 1537 1539 1540 1541 1543 1544 1545 1546 1547 1548 1548 1549
1505 1505 1496 1496 1498 1500 1499 1504 1521 1528 1521 1507 1495 1503 1501 1493 1495 1498 1502 1505 1509 1512 1515 1518 1520 1523 1525 1527 1529 1531 1533 1534 1536 1537 1539 1540 1541 1543 1544 1545 1546 1547 1547 1548
1500 1501 1492 1493 1495 1497 1501 1502 1499 1508 1508 1510 1503 1499 1497 1494 1498 1500 1502 1505 1508 1511 1514 1516 1519 1521 1524 1526 1528 1529 1531 1533 1534 1536 1537 1539 1540 1541 1543 1544 1545 1546 1546 1547
1496 1501 1493 1492 1494 1495 1496 1497 1502 1509 1520 1521 1509 1503 1505 1501 1500 1501 1503 1506 1508 1511 1514 1516 1518 1520 1522 1524 1526 1528 1529 1531 1533 1534 1536 1537 1538 1540 1541 1543 1543 1544 1545 1546
1496 1501 1498 1494 1497 1498 1498 1499 1500 1503 1506 1519 1520 1513 1492 1496 1497 1500 1503 1506 1508 1511 1513 1515 1517 1519 1521 1523 1524 1526 1527 1529 1531 1532 1534 1535 1537 1538 1540 1541 1542 1543 1544 1545
1497 1500 1501 1496 1490 1491 1493 1495 1498 1510 1509 1506 1514 1514 1493 1495 1498 1501 1503 1506 1508 1511 1513 1515 1516 1518 1520 1521 1522 1524 1525 1527 1528 1530 1532 1533 1535 1537 1538 1540 1541 1542 1543 1544
1499 1502 1508 1506 1500 1494 1494 1493 1493 1496 1501 1505 1513 1512 1494 1496 1498 1501 1503 1505 1508 1510 1512 1514 1515 1517 1518 1519 1521 1522 1523 1524 1526 1528 1529 1531 1533 1534 1536 1537 1539 1540 1541 1542
1502 1501 1506 1511 1503 1498 1497 1496 1494 1498 1506 1506 1505 1502 1497 1496 1499 1501 1503 1505 1507 1510 1512 1513 1514 1516 1517 1518 1519 1520 1521 1522 1524 1525 1527 1528 1530 1532 1533 1535 1537 1538 1540 1540
1500 1501 1497 1494 1491 1492 1494 1494 1494 1497 1497 1502 1500 1497 1495 1495 1498 1501 1503 1505 1507 1509 1511 1512 1513 1514 1516 1517 1517 1518 1519 1520 1521 1523 1524 1526 1527 1529 1531 1532 1534 1536 1537 1538
1499 1500 1498 1496 1490 1491 1494 1492 1492 1493 1493 1494 1495 1496 1492 1495 1497 1500 1502 1505 1506 1507 1509 1510 1512 1513 1514 1515 1515 1516 1517 1517 1518 1520 1521 1523 1524 1526 1528 1530 1531 1533 1535 1536
1498 1500 1503 1501 1491 1492 1497 1489 1489 1490 1489 1491 1495 1495 1492 1494 1496 1499 1501 1503 1505 1506 1507 1508 1510 1511 1512 1513 1513 1514 1515 1516 1516 1517 1519 1520 1522 1523 1525 1527 1529 1530 1531 1532
1499 1500 1502 1501 1498 1506 1491 1482 1483 1485 1486 1486 1488 1490 1492 1494 1496 1498 1500 1502 1503 1504 1505 1506 1508 1508 1509 1510 1511 1512 1513 1513 1514 1515 1516 1517 1519 1520 1522 1523 1525 1526 1528 1529
1495 1499 1502 1502 1502 1496 1487 1483 1483 1486 1487 1485 1487 1489 1491 1493 1495 1497 1499 1500 1501 1503 1503 1505 1505 1506 1507 1508 1508 1509 1510 1511 1512 1513 1513 1514 1516 1517 1518 1520 1521 1523 1525 1526
1493 1495 1501 1502 1504 1502 1491 1483 1483 1485 1489 1486 1487 1489 1491 1492 1496 1498 1498 1498 1499 1500 1501 1502 1503 1504 1505 1505 1506 1507 1508 1508 1509 1510 1511 1511 1512 1514 1515 1516 1518 1520 1522 1523
1494 1495 1499 1501 1500 1492 1487 1485 1486 1495 1494 1488 1488 1489 1491 1492 1495 1496 1496 1497 1498 1499 1499 1500 1501 1501 1502 1503 1504 1504 1505 1506 1506 1507 1508 1509 1509 1511 1512 1514 1515 1517 1518 1520
1491 1493 1494 1495 1499 1497 1487 1486 1488 1490 1488 1489 1489 1490 1491 1492 1493 1494 1495 1496 1496 1497 1497 1498 1498 1499 1500 1500 1501 1501 1502 1503 1503 1504 1505 1506 1507 1508 1509 1510 1512 1513 1515 1516
1487 1489 1489 1491 1493 1488 1487 1487 1487 1487 1488 1489 1490 1490 1490 1491 1492 1492 1493 1494 1494 1495 1495 1496 1496 1496 1497 1497 1498 1498 1499 1500 1500 1501 1502 1503 1504 1505 1506 1507 1508 1510 1511 1512
1484 1485 1485 1486 1485 1485 1486 1486 1487 1488 1488 1488 1489 1489 1489 1489 1490 1491 1491 1492 1492 1492 1492 1492 1492 1492 1493 1494 1495 1495 1496 1497 1498 1498 1499 1500 1501 1502 1503 1504 1505 1506 1507 1508
1487 1486 1485 1484 1484 1485 1485 1486 1487 1487 1487 1487 1487 1487 1488 1488 1488 1488 1489 1489 1489 1489 1489 1489 1489 1489 1490 1490 1491 1491 1492 1493 1494 1495 1496 1496 1497 1498 1499 1500 1501 1502 1503 1504
1486 1486 1486 1485 1484 1484 1485 1485 1486 1485 1485 1485 1485 1485 1485 1485 1485 1486 1486 1486 1486 1486 1486 1486 1486 1486 1486 1487 1487 1488 1489 1490 1490 1491 1492 1492 1493 1494 1495 1496 1498 1499 1500 1501